Estación de Santa Rosa INIA

Ultimos registro cada 15 minutos 43
Estación Fecha / Hora Temperatura Humedad Lluvia Velocidad Dirección Radiación Presion
43 Santa Rosa INIA 02-05-2026 10:30 6,2 100 0 0,5 236 365 997
42 Santa Rosa INIA 02-05-2026 10:15 5,4 100 0 0 0 334 997
41 Santa Rosa INIA 02-05-2026 10:00 5,1 100 0 0 0 300 997
40 Santa Rosa INIA 02-05-2026 09:45 4,3 100 0 0 0 265 997
39 Santa Rosa INIA 02-05-2026 09:30 3,6 0,4 0 0,1 213 229 997
38 Santa Rosa INIA 02-05-2026 09:15 3,1 0,6 0 0,1 242 192 998
37 Santa Rosa INIA 02-05-2026 09:00 2,6 0,5 0 0 0 161 997
36 Santa Rosa INIA 02-05-2026 08:45 2,4 0,5 0 0 0 118 997
35 Santa Rosa INIA 02-05-2026 08:30 1,6 0,5 0,1 0 0 99 997
34 Santa Rosa INIA 02-05-2026 08:15 1,4 0,5 0 0 0 90 997
33 Santa Rosa INIA 02-05-2026 08:00 0,8 0,5 0 0,1 226 60 997
32 Santa Rosa INIA 02-05-2026 07:45 0,5 0,5 0 0 0 14 997
31 Santa Rosa INIA 02-05-2026 07:30 -0,5 0,5 0 0 236 2 997
30 Santa Rosa INIA 02-05-2026 07:15 -0,6 0,4 0 0 0 0 997
29 Santa Rosa INIA 02-05-2026 07:00 -0,3 0,5 0 0 0 1 997
28 Santa Rosa INIA 02-05-2026 06:45 -0,1 0,5 0 0 0 0 997
27 Santa Rosa INIA 02-05-2026 06:30 0,6 0,5 0 0 0 0 997
26 Santa Rosa INIA 02-05-2026 06:15 1 0,5 0 0 0 0 997
25 Santa Rosa INIA 02-05-2026 06:00 1 0,5 0 0 0 1 997
24 Santa Rosa INIA 02-05-2026 05:45 1,3 0,5 0 0 0 0 998
23 Santa Rosa INIA 02-05-2026 05:30 1,6 0,5 0 0 0 0 998
22 Santa Rosa INIA 02-05-2026 05:15 1,6 0,5 0 0 0 0 998
21 Santa Rosa INIA 02-05-2026 05:00 1,4 0,6 0 0 0 1 998
20 Santa Rosa INIA 02-05-2026 04:45 0,6 0,5 0 0 0 0 998
19 Santa Rosa INIA 02-05-2026 04:30 2 0,5 0 0 0 0 998
18 Santa Rosa INIA 02-05-2026 04:15 2,4 0,4 0 0 0 0 998
17 Santa Rosa INIA 02-05-2026 04:00 1,8 0,5 0 0 0 1 998
16 Santa Rosa INIA 02-05-2026 03:45 2,7 0,4 0 0 0 0 999
15 Santa Rosa INIA 02-05-2026 03:30 3,2 0,4 0 0 0 0 999
14 Santa Rosa INIA 02-05-2026 03:15 3,5 0,5 0 0 0 0 999
13 Santa Rosa INIA 02-05-2026 03:00 3 0,5 0 0 0 1 999
12 Santa Rosa INIA 02-05-2026 02:45 2,6 0,5 0 0 0 0 999
11 Santa Rosa INIA 02-05-2026 02:30 2,4 0,5 0 0 0 0 999
10 Santa Rosa INIA 02-05-2026 02:15 3,1 100 0 0 0 0 999
9 Santa Rosa INIA 02-05-2026 02:00 3,7 100 0 0 0 1 999
8 Santa Rosa INIA 02-05-2026 01:45 4,1 100 0 0 247 0 999
7 Santa Rosa INIA 02-05-2026 01:30 3,9 100 0 0 241 0 1000
6 Santa Rosa INIA 02-05-2026 01:15 4,5 100 0 0 0 0 1000
5 Santa Rosa INIA 02-05-2026 01:00 5,9 100 0 1 248 1 1000
4 Santa Rosa INIA 02-05-2026 00:45 5,7 100 0 0 242 0 1000
3 Santa Rosa INIA 02-05-2026 00:30 5,6 100 0 0 231 0 1000
2 Santa Rosa INIA 02-05-2026 00:15 5,2 100 0 0 0 0 1001
1 Santa Rosa INIA 02-05-2026 00:00 5,3 100 0 0 0 1 1001